Location: Cambridge (historical)
(38.6883°N, 119.0140°W)
Time: 17:10:46
(UTC+00:00)

Cosmos 1300 - Pass Details

Date: 29 October 2020
Orbit: 511 x 513 km, 82.5° (Epoch: 23 November)

Event Time Altitude Azimuth Distance (km) Brightness Sun altitude
Exits shadow 12:46:09 - 348° (NNW) 1,935 5.5 -18.9°
Reaches altitude 10° 12:46:37 10° 348° (NNW) 1,742 5.2 -18.8°
Maximum altitude 12:50:25 69° 264° (W) 551 2.5 -18.1°
Drops below altitude 10° 12:54:11 10° 182° (S) 1,726 5.4 -17.3°
Sets 12:56:18 0° 179° (S) 2,607 6.3 -16.9°
